Total_Precipitation_Accumulation
1.84 2.08 2.37 2.83 3.59 4.30 4.93 4.98 5.15 4.59 3.91 3.31 2.88 2.74 2.49 2.21 2.18 2.05 1.85 1.69 1.50 1.41 1.53 1.38 1.30 1.26 1.33 1.32 1.43 1.55 1.58 1.35 1.52 1.77 1.35 0.95 0.72 0.63 0.50 0.48 0.55 0.58 0.65
1.94 2.31 2.85 3.19 3.19 3.69 4.36 4.37 3.99 3.68 3.21 2.74 2.51 2.33 2.22 1.97 1.79 1.62 1.51 1.33 1.23 1.24 1.25 1.24 1.10 1.07 1.15 1.14 1.22 1.33 1.34 1.20 1.41 1.62 1.61 1.25 0.95 0.75 0.49 0.48 0.49 0.57 0.69
1.80 2.24 2.66 3.05 3.00 3.35 3.43 2.99 2.71 2.68 2.57 2.35 2.22 2.13 2.05 1.85 1.53 1.26 1.14 1.07 1.00 0.96 0.93 0.92 0.93 0.98 0.93 0.99 1.08 1.22 1.36 1.24 1.18 1.37 1.57 1.36 1.07 0.89 0.68 0.64 0.70 0.79 0.88
1.19 1.52 1.84 2.27 2.46 2.51 2.40 2.25 2.15 2.12 2.24 2.20 1.99 1.80 1.46 1.29 1.13 0.99 1.01 1.01 0.90 0.83 0.78 0.77 0.87 0.92 0.92 1.02 0.91 0.96 1.15 1.24 1.11 1.12 1.17 1.22 1.28 1.24 0.98 0.73 0.68 0.78 0.85
0.83 1.03 1.16 1.36 1.64 1.84 1.85 1.77 1.97 2.03 2.01 1.94 1.87 1.82 1.55 1.29 1.18 1.17 1.22 1.13 1.00 0.86 0.76 0.74 0.75 0.83 0.91 0.96 0.95 0.97 0.97 1.02 0.99 0.98 0.99 1.07 1.16 1.15 1.11 0.91 0.73 0.72 0.66
0.65 0.83 0.90 0.94 1.06 1.17 1.25 1.32 1.53 1.73 1.76 1.71 1.68 1.67 1.57 1.40 1.21 1.12 1.09 1.03 0.98 0.90 0.80 0.77 0.81 0.79 0.78 0.79 0.84 0.88 0.88 0.92 0.94 0.93 0.95 1.04 1.02 1.02 1.14 1.03 0.86 0.79 0.67
0.48 0.57 0.64 0.71 0.78 0.79 0.84 0.95 1.12 1.30 1.43 1.49 1.48 1.49 1.56 1.41 1.19 0.99 0.97 0.92 0.82 0.79 0.79 0.77 0.86 0.91 0.88 0.83 0.83 0.84 0.89 0.95 0.98 0.96 0.96 1.00 1.02 1.03 1.13 1.12 0.95 0.87 0.84
0.38 0.39 0.41 0.45 0.55 0.55 0.61 0.70 0.77 0.89 1.03 1.23 1.36 1.27 1.32 1.18 1.04 1.08 1.01 0.88 0.73 0.77 0.93 0.96 0.95 0.95 0.97 0.93 1.00 0.97 0.98 1.02 1.02 0.97 1.08 1.09 1.02 1.12 1.21 1.31 1.34 1.17 1.11
0.35 0.34 0.31 0.30 0.34 0.36 0.41 0.51 0.66 0.80 0.86 0.93 1.13 1.21 1.14 1.08 1.08 1.12 1.07 0.95 0.87 0.82 0.92 0.97 1.00 0.97 0.95 0.98 1.09 1.08 1.11 1.16 1.13 1.13 1.23 1.24 1.20 1.20 1.19 1.34 1.48 1.50 1.41
0.37 0.41 0.31 0.25 0.28 0.30 0.34 0.46 0.58 0.76 0.90 0.89 0.88 0.94 1.08 1.11 1.18 1.17 0.99 0.91 0.90 0.87 0.87 0.85 0.90 0.94 0.94 1.01 1.17 1.18 1.22 1.35 1.34 1.31 1.32 1.33 1.33 1.40 1.35 1.36 1.50 1.62 1.65
0.31 0.36 0.29 0.24 0.29 0.31 0.37 0.46 0.56 0.80 0.95 0.86 0.86 0.93 1.03 1.09 1.13 1.27 1.20 1.04 0.97 0.91 0.86 0.82 0.83 0.85 0.85 0.92 1.06 1.20 1.31 1.40 1.40 1.38 1.40 1.39 1.48 1.50 1.39 1.42 1.48 1.58 1.69
0.31 0.35 0.34 0.36 0.38 0.42 0.45 0.53 0.61 0.76 0.85 0.85 0.89 0.92 0.97 1.01 1.02 1.08 1.13 1.14 1.03 0.93 0.89 0.89 0.88 0.78 0.76 0.85 0.97 1.11 1.28 1.40 1.47 1.50 1.53 1.40 1.40 1.49 1.48 1.49 1.49 1.50 1.63
0.48 0.46 0.48 0.52 0.47 0.46 0.55 0.61 0.69 0.75 0.85 0.99 0.95 0.88 0.87 0.82 0.83 0.90 0.96 1.04 1.10 1.12 1.10 1.06 1.01 0.96 0.99 1.08 1.14 1.17 1.29 1.43 1.49 1.52 1.48 1.41 1.44 1.36 1.44 1.49 1.47 1.46 1.45
0.47 0.42 0.44 0.46 0.49 0.52 0.55 0.61 0.69 0.78 0.86 0.85 0.84 0.84 0.82 0.82 0.88 0.93 0.96 0.99 1.03 1.12 1.16 1.13 1.17 1.20 1.23 1.24 1.22 1.20 1.22 1.25 1.28 1.31 1.27 1.24 1.27 1.29 1.37 1.36 1.35 1.39 1.44
0.42 0.36 0.33 0.43 0.53 0.59 0.57 0.58 0.66 0.77 0.87 0.90 0.84 0.78 0.80 0.85 0.88 0.90 0.92 0.94 0.99 1.02 1.18 1.23 1.32 1.39 1.37 1.25 1.25 1.24 1.13 1.20 1.19 1.16 1.14 1.13 1.18 1.20 1.25 1.18 1.22 1.31 1.38
0.41 0.36 0.36 0.45 0.52 0.54 0.53 0.49 0.53 0.63 0.74 0.82 0.87 0.90 0.88 0.84 0.88 0.91 0.91 0.95 1.01 1.11 1.23 1.27 1.36 1.37 1.26 1.28 1.27 1.24 1.18 1.22 1.21 1.17 1.12 1.03 1.03 1.00 1.00 1.02 1.07 1.16 1.25
0.37 0.43 0.47 0.46 0.49 0.50 0.46 0.46 0.46 0.57 0.78 0.88 0.89 0.99 1.07 0.99 1.05 1.08 1.06 1.07 1.11 1.22 1.29 1.41 1.46 1.46 1.47 1.35 1.21 1.19 1.15 1.21 1.26 1.29 1.28 1.03 0.85 0.91 0.92 1.01 0.98 0.95 1.02
0.37 0.40 0.41 0.40 0.43 0.44 0.46 0.46 0.48 0.56 0.76 0.92 0.97 1.13 1.28 1.19 1.22 1.24 1.25 1.31 1.38 1.41 1.50 1.55 1.49 1.49 1.48 1.38 1.16 1.09 1.01 1.08 1.18 1.24 1.26 1.20 1.10 1.08 1.10 1.15 1.13 1.06 1.03
0.39 0.37 0.39 0.41 0.42 0.46 0.49 0.52 0.65 0.76 0.88 1.00 1.12 1.30 1.45 1.53 1.51 1.47 1.56 1.62 1.64 1.68 1.76 1.82 1.77 1.67 1.63 1.45 1.13 1.01 0.94 1.03 1.06 1.09 1.09 1.06 0.97 0.94 0.85 0.89 0.98 1.02 0.99
0.37 0.40 0.45 0.46 0.45 0.51 0.57 0.63 0.79 0.98 1.10 1.14 1.17 1.26 1.45 1.55 1.59 1.60 1.76 1.90 1.93 1.92 1.95 1.84 1.71 1.63 1.61 1.51 1.21 1.05 1.01 1.10 1.14 1.20 1.17 1.10 1.01 0.93 0.78 0.80 0.90 0.91 0.92
0.42 0.45 0.49 0.55 0.59 0.65 0.75 0.86 0.95 1.06 1.08 1.09 1.13 1.20 1.44 1.72 1.76 1.82 1.90 2.00 2.07 2.11 2.11 1.98 1.86 1.77 1.72 1.66 1.31 1.13 1.11 1.19 1.24 1.19 1.18 1.12 1.03 0.83 0.71 0.68 0.75 0.78 0.81
0.46 0.48 0.49 0.54 0.62 0.73 0.88 0.98 1.00 1.02 1.07 1.09 1.16 1.30 1.55 1.65 1.74 1.90 1.95 2.10 2.22 2.22 2.18 2.16 2.02 1.94 1.84 1.58 1.30 1.11 1.11 1.22 1.34 1.33 1.28 1.23 1.07 0.84 0.71 0.61 0.57 0.59 0.61
0.51 0.55 0.56 0.59 0.66 0.77 0.95 1.09 1.09 1.09 1.09 1.09 1.14 1.24 1.39 1.49 1.62 1.70 1.68 1.78 1.90 1.93 1.96 1.97 1.92 1.90 1.91 1.71 1.33 1.11 1.08 1.17 1.29 1.42 1.47 1.29 1.12 0.98 0.84 0.77 0.68 0.61 0.58
0.64 0.64 0.62 0.64 0.68 0.73 0.91 1.05 1.07 1.09 1.08 1.04 1.02 1.11 1.29 1.37 1.44 1.56 1.58 1.68 1.75 1.80 1.88 1.90 1.84 1.83 1.91 1.84 1.52 1.26 1.13 1.08 1.09 1.15 1.18 1.12 1.06 0.97 0.85 0.77 0.67 0.58 0.59
0.54 0.54 0.56 0.60 0.63 0.69 0.86 1.01 1.03 1.07 1.10 1.07 1.03 1.11 1.22 1.31 1.39 1.50 1.59 1.61 1.64 1.62 1.66 1.70 1.67 1.67 1.77 1.74 1.49 1.28 1.15 1.06 1.06 1.10 1.16 1.15 1.15 1.06 0.96 0.88 0.82 0.79 0.79
0.50 0.53 0.56 0.58 0.56 0.62 0.73 0.84 1.02 1.17 1.23 1.16 1.08 1.07 1.08 1.16 1.23 1.31 1.31 1.25 1.24 1.22 1.20 1.24 1.17 1.17 1.33 1.33 1.11 0.98 1.01 1.00 0.97 1.00 1.08 1.15 1.19 1.15 1.08 1.02 0.96 0.95 0.92